DW8228 Nauvo FI current weather conditions

sailwx.info

Wind from 216 at 11 knots gusting 16

Air temperature 14.4° C
Dewpoint 12.7° C

Last reported at 2018-Jun-18 23:59 UTC.
Time now 2018-Jun-19 01:09 UTC

Location: N 60°05' E 022°01'.
View on Google Maps.

See reports from other nearby stations

  
Tides and Currents Weather Stations Pressure Air Temp Water Temp Dewpoint Dewpoint Depression Visibility Wind Speed Wind Dir Waves Ship Positions
date/time (UTC)wind fromknots sea level pressurealtimeterstation pressurevisibilityair tempwater tempwave heightnotes
2018-Jun-18 23:59 216 11 gusting 16 14.4
2018-Jun-18 23:44 228 11 gusting 16 14.4
2018-Jun-18 23:29 233 8 gusting 15 15.0
2018-Jun-18 23:14 243 8 gusting 14 15.0
2018-Jun-18 22:59 219 8 gusting 15 14.4
2018-Jun-18 22:44 217 9 gusting 14 14.4
2018-Jun-18 22:29 221 9 gusting 16 14.4
2018-Jun-18 22:14 226 8 gusting 14 14.4
2018-Jun-18 21:59 251 10 gusting 16 14.4
2018-Jun-18 21:44 253 10 gusting 17 14.4
2018-Jun-18 21:29 231 8 gusting 14 15.0
2018-Jun-18 21:13 226 8 gusting 15 15.0
2018-Jun-18 20:58 239 8 gusting 16 15.0
2018-Jun-18 20:43 235 8 gusting 16 15.0
2018-Jun-18 20:28 233 9 gusting 16 15.0
2018-Jun-18 20:13 210 7 gusting 15 15.0
2018-Jun-18 19:58 239 9 gusting 15 15.0
2018-Jun-18 19:43 218 8 gusting 15 15.0
2018-Jun-18 19:28 222 11 gusting 17 15.0
2018-Jun-18 19:14 218 9 gusting 16 15.0
2018-Jun-18 18:58 214 6 gusting 14 15.0
2018-Jun-18 18:43 235 8 gusting 16 15.0
2018-Jun-18 18:28 213 7 gusting 14 15.0
2018-Jun-18 18:13 252 6 gusting 15 15.0
2018-Jun-18 17:58 251 9 gusting 17 15.0
2018-Jun-18 17:43 210 9 gusting 16 15.0
2018-Jun-18 17:28 209 6 gusting 13 15.0
2018-Jun-18 17:13 241 8 gusting 14 15.0
2018-Jun-18 16:58 218 10 gusting 17 15.0
2018-Jun-18 16:43 224 8 gusting 15 15.6
2018-Jun-18 16:28 247 9 gusting 15 15.0
2018-Jun-18 16:13 237 11 gusting 15 15.6
2018-Jun-18 15:58 225 10 gusting 15 15.6
2018-Jun-18 15:44 232 13 gusting 19 15.6
2018-Jun-18 15:28 230 9 gusting 17 15.6
2018-Jun-18 15:13 231 10 gusting 18 16.1
2018-Jun-18 14:58 196 10 gusting 17 16.1
2018-Jun-18 14:43 228 11 gusting 19 16.1
2018-Jun-18 14:28 235 12 gusting 17 16.1
2018-Jun-18 14:13 210 8 gusting 18 16.1
2018-Jun-18 13:58 231 9 gusting 21 16.7
2018-Jun-18 13:43 229 12 gusting 20 17.2
2018-Jun-18 13:28 253 10 gusting 21 16.7
2018-Jun-18 13:13 235 12 gusting 19 16.7
2018-Jun-18 12:58 226 9 gusting 17 16.7
2018-Jun-18 11:58 234 9 gusting 19 16.1
2018-Jun-18 11:43 255 10 gusting 18 16.7
2018-Jun-18 11:28 226 11 gusting 17 16.7
2018-Jun-18 11:13 233 10 gusting 16 17.2
2018-Jun-18 10:58 236 9 gusting 18 16.7
2018-Jun-18 10:43 251 7 gusting 19 16.7
2018-Jun-18 10:28 241 10 gusting 18 16.7
2018-Jun-18 10:13 224 7 gusting 15 16.7
2018-Jun-18 09:58 258 8 gusting 17 16.7
2018-Jun-18 09:43 251 12 gusting 18 16.1
2018-Jun-18 09:28 251 9 gusting 14 16.7
2018-Jun-18 09:13 210 8 gusting 16 16.1
2018-Jun-18 08:58 227 6 gusting 14 16.1
2018-Jun-18 08:43 210 6 gusting 15 16.1
2018-Jun-18 08:28 231 7 gusting 13 16.1
2018-Jun-18 08:13 225 10 gusting 15 15.6
2018-Jun-18 07:58 241 6 gusting 16 15.6
2018-Jun-18 07:43 245 8 gusting 17 15.6
2018-Jun-18 07:28 229 8 gusting 16 15.6
2018-Jun-18 07:13 224 9 gusting 16 15.6
2018-Jun-18 06:58 218 7 gusting 12 15.6
2018-Jun-18 06:43 255 6 gusting 14 15.6
2018-Jun-18 06:28 256 5 gusting 11 15.6
2018-Jun-18 06:12 195 3 gusting 10 15.6
2018-Jun-18 05:57 259 4 gusting 8 15.0
2018-Jun-18 05:42 248 3 gusting 10 15.0
2018-Jun-18 05:27 237 3 gusting 9 15.0
2018-Jun-18 05:12 215 4 gusting 10 14.4
2018-Jun-18 04:57 228 5 gusting 10 15.0
2018-Jun-18 04:42 243 4 gusting 10 15.0
2018-Jun-18 04:27 245 4 gusting 8 15.0
2018-Jun-18 04:12 241 4 gusting 9 15.0
2018-Jun-18 03:57 249 4 gusting 11 15.0
2018-Jun-18 03:42 229 5 gusting 10 15.0
2018-Jun-18 03:27 249 6 gusting 11 15.0
2018-Jun-18 03:12 233 5 gusting 11 15.0
2018-Jun-18 02:57 246 5 gusting 12 15.0
2018-Jun-18 02:42 233 6 gusting 12 15.0
2018-Jun-18 02:27 224 7 gusting 17 15.0
2018-Jun-18 02:13 248 7 gusting 15 15.6
2018-Jun-18 01:57 224 9 gusting 17 15.0
2018-Jun-18 01:42 214 9 gusting 16 15.0
2018-Jun-18 01:27 224 11 gusting 15 15.6
2018-Jun-18 01:12 237 6 gusting 13 15.6
2018-Jun-18 00:57 205 8 gusting 15 15.6
2018-Jun-18 00:42 224 8 gusting 15 15.6
2018-Jun-18 00:27 185 7 gusting 14 15.6
2018-Jun-18 00:12 160 7 gusting 12 15.0
2018-Jun-17 23:57 175 3 gusting 8 15.0
2018-Jun-17 23:42 175 4 gusting 8 15.6
2018-Jun-17 23:27 147 4 gusting 9 15.6
2018-Jun-17 23:12 189 5 gusting 9 15.6
2018-Jun-17 22:57 141 5 gusting 9 15.6
2018-Jun-17 22:42 150 4 gusting 8 15.6
2018-Jun-17 22:27 199 3 gusting 8 16.1
2018-Jun-17 22:12 180 4 gusting 9 16.1
2018-Jun-17 21:57 218 7 gusting 11 16.7
2018-Jun-17 21:42 197 8 gusting 13 16.7
2018-Jun-17 21:27 189 7 gusting 13 16.1
2018-Jun-17 21:11 204 5 gusting 11 15.6
2018-Jun-17 20:56 225 5 gusting 9 16.1
2018-Jun-17 20:41 217 4 gusting 11 16.7
2018-Jun-17 20:26 206 3 gusting 10 17.2
2018-Jun-17 20:11 175 2 gusting 9 17.2
2018-Jun-17 19:56 175 3 gusting 10 17.2
2018-Jun-17 19:41 193 2 gusting 12 17.8
2018-Jun-17 19:26 146 3 gusting 10 17.8
2018-Jun-17 19:11 139 5 gusting 11 18.3
2018-Jun-17 18:56 180 3 gusting 11 18.3
2018-Jun-17 18:41 185 3 gusting 11 18.9
2018-Jun-17 18:26 143 4 gusting 13 19.4
2018-Jun-17 18:11 160 2 gusting 14 19.4
2018-Jun-17 17:56 191 4 gusting 11 19.4
2018-Jun-17 17:41 202 3 gusting 12 20.0
2018-Jun-17 17:26 180 2 gusting 9 20.0
2018-Jun-17 17:11 158 3 gusting 10 20.6
2018-Jun-17 16:56 180 2 gusting 11 20.6
2018-Jun-17 16:41 171 5 gusting 11 20.0
2018-Jun-17 16:26 180 2 gusting 7 20.0
2018-Jun-17 16:11 145 4 gusting 10 20.0
2018-Jun-17 15:56 175 0 gusting 6 20.6
2018-Jun-17 15:41 180 20.0
2018-Jun-17 15:26 201 0 gusting 4 20.0
2018-Jun-17 15:11 168 2 gusting 4 20.0
2018-Jun-17 14:56 234 20.0
2018-Jun-17 14:41 236 21.1
2018-Jun-17 14:26 217 0 gusting 3 20.6
2018-Jun-17 14:11 231 0 gusting 2 20.0
2018-Jun-17 13:56 235 20.0
2018-Jun-17 13:41 237 0 gusting 3 20.0
2018-Jun-17 13:26 227 0 gusting 2 20.6
2018-Jun-17 13:11 201 0 gusting 5 20.0
2018-Jun-17 12:56 215 0 gusting 5 20.6
2018-Jun-17 12:41 237 2 gusting 4 20.0
2018-Jun-17 12:26 248 2 gusting 3 21.1
2018-Jun-17 12:11 240 0 gusting 4 20.0
2018-Jun-17 11:56 245 3 gusting 5 20.0
2018-Jun-17 11:41 252 2 gusting 5 20.0
2018-Jun-17 11:26 240 4 gusting 6 20.0
2018-Jun-17 11:11 241 3 gusting 5 20.0
2018-Jun-17 10:56 237 3 gusting 6 20.0
2018-Jun-17 10:41 217 3 gusting 7 20.6
2018-Jun-17 10:26 227 3 gusting 5 20.6
2018-Jun-17 10:11 249 0 gusting 4 20.6
2018-Jun-17 09:56 221 0 gusting 5 21.7
2018-Jun-17 09:40 226 0 gusting 4 21.1
2018-Jun-17 09:26 218 2 gusting 6 20.0
2018-Jun-17 09:10 210 2 gusting 5 19.4
2018-Jun-17 08:55 169 1 gusting 3 20.6
2018-Jun-17 08:40 185 0 gusting 3 18.9
2018-Jun-17 08:25 256 18.3
2018-Jun-17 08:10 271 17.8
2018-Jun-17 07:55 238 17.8
2018-Jun-17 07:40 219 0 gusting 4 18.3
2018-Jun-17 07:25 168 0 gusting 4 18.3
2018-Jun-17 07:10 151 0 gusting 4 17.8
2018-Jun-17 06:55 191 0 gusting 3 17.2
2018-Jun-17 06:40 100 15.6
2018-Jun-17 06:25 070 15.0
2018-Jun-17 06:10 071 14.4
2018-Jun-17 05:55 071 13.9
2018-Jun-17 05:40 071 13.3
2018-Jun-17 05:25 071 12.8
2018-Jun-17 05:10 071 12.2
2018-Jun-17 04:55 071 12.2
2018-Jun-17 04:40 074 0 gusting 2 12.2
2018-Jun-17 04:25 046 11.7
2018-Jun-17 04:10 247 11.7
2018-Jun-17 03:55 247 11.1
2018-Jun-17 03:40 247 11.1
2018-Jun-17 03:25 247 11.1
2018-Jun-17 03:10 247 11.1
2018-Jun-17 02:55 247 10.6
2018-Jun-17 02:40 246 10.6
2018-Jun-17 02:25 246 10.6
2018-Jun-17 02:10 245 10.6
2018-Jun-17 01:54 246 10.6
2018-Jun-17 01:39 245 10.6
2018-Jun-17 01:25 245 10.6
2018-Jun-17 01:09 336 10.6